{"data":{"norad_id":69334,"intl_designator":"2026-122F","name":"STARLINK-37868","alt_names":[],"object_type":"PAYLOAD","status":"ACTIVE","operator":null,"country":"US","launch_date":"2026-06-03","launch_site_code":"AFWTR","launch_vehicle":null,"mission":null,"orbit_class":"UNKNOWN","rcs_meters":null,"size_class":null,"mass_kg":null,"dimensions":null,"purposes":["comms"],"wikipedia_slug":null,"has_3d_model":false,"image_url":null,"decayed_at":null,"tle_current":{"epoch":"2026-09-20T00:37:15.902400Z","epoch_age_seconds":69940,"freshness":"FRESH","line1":"1 69334U 26122F   26263.02587850 -.00008373  00000+0 -25766-3 0  9993","line2":"2 69334  97.2840 291.6058 0001962  54.5540 305.5886 15.33401743 16721","mean_motion":15.33401743,"eccentricity":0.0001962,"inclination_deg":97.284,"raan_deg":291.6058,"arg_perigee_deg":54.554,"mean_anomaly_deg":305.5886,"bstar":-0.00025766,"rev_number":1672,"period_min":93.908853734752,"perigee_km":464.32912459956,"apogee_km":467.01463520403,"semimajor_km":6843.8088799018,"source":"CELESTRAK","updated_at":"2026-09-20T09:00:44.159929Z"}}}